Change the Weather History Date:

Tuesday, September 24, 2013

  Actual Average Record
Temperature  
Mean Temperature 58 °F -  
Max Temperature 72 °F 59 °F 84 °F (2007)
Min Temperature 43 °F 26 °F 21 °F (2000)
Degree Days  
Heating Degree Days 7    
Growing Degree Days 8 (Base 50)    
Moisture  
Dew Point 47 °F    
Average Humidity 77    
Maximum Humidity 97    
Minimum Humidity 42    
Precipitation  
Precipitation 0.00 in - - ()
Sea Level Pressure  
Sea Level Pressure 30.01 in    
Wind  
Wind Speed 3 mph (SSE)    
Max Wind Speed 8 mph    
Max Gust Speed -    
Visibility 10 miles    
Events      
Averages and records for this station are not official NWS values.
T = Trace of Precipitation, MM = Missing Value Source: NWS Daily Summary

Daily Weather History Graph

Daily Weather History Graph

Search for Another Location

Airport or City:

Trip Planner

Search our weather history database for the weather conditions in past years. The results will help you decide how hot, cold, wet, or windy it might be!

Date:

Astronomy

Sep. 24, 2013 Rise Set
Actual Time 6:55 AM CDT 6:58 PM CDT
Civil Twilight 6:25 AM CDT 7:28 PM CDT
Nautical Twilight 5:50 AM CDT 8:03 PM CDT
Astronomical Twilight 5:14 AM CDT 8:39 PM CDT
Moon 10:00 PM CDT (9/24) 12:27 PM CDT (9/24)
Length of Visible Light 13h 02m
Length of Day
12h 03m
Waning Gibbous, 73% of the Moon is Illuminated
Sep 24
Waning Gibbous
Sep 26
Last Quarter
Oct 4
New
Oct 11
First Quarter
Oct 18
Full

Hourly Weather History & Observations

Time (CDT) Temp. Dew Point Humidity Pressure Visibility Wind Dir Wind Speed Gust Speed Precip Events Conditions
12:53 AM 46.9 °F 46.0 °F 97% 30.02 in 10.0 mi Calm Calm - N/A   Clear
1:53 AM 52.0 °F 48.0 °F 86% 30.02 in 10.0 mi SSE 4.6 mph - N/A   Clear
2:53 AM 50.0 °F 46.9 °F 89% 30.02 in 10.0 mi Calm Calm - N/A   Clear
3:53 AM 48.0 °F 46.0 °F 93% 30.03 in 10.0 mi SSE 4.6 mph - N/A   Clear
4:53 AM 48.0 °F 46.0 °F 93% 30.03 in 10.0 mi SSE 5.8 mph - N/A   Clear
5:53 AM 46.0 °F 44.1 °F 93% 30.04 in 9.0 mi Calm Calm - N/A   Clear
6:53 AM 48.0 °F 45.0 °F 89% 30.04 in 10.0 mi ESE 3.5 mph - N/A   Clear
7:53 AM 48.9 °F 46.0 °F 90% 30.05 in 10.0 mi Variable 4.6 mph - N/A   Clear
8:53 AM 52.0 °F 46.9 °F 83% 30.05 in 10.0 mi Variable 4.6 mph - N/A   Clear
9:53 AM 57.0 °F 48.9 °F 74% 30.05 in 10.0 mi SSE 8.1 mph - N/A   Clear
10:53 AM 61.0 °F 48.9 °F 64% 30.04 in 10.0 mi South 8.1 mph - N/A   Clear
11:53 AM 64.9 °F 50.0 °F 58% 30.03 in 10.0 mi SSW 5.8 mph - N/A   Clear
12:53 PM 68.0 °F 50.0 °F 52% 30.02 in 10.0 mi Variable 4.6 mph - N/A   Clear
1:53 PM 70.0 °F 48.9 °F 47% 30.00 in 10.0 mi SSE 8.1 mph - N/A   Clear
2:53 PM 70.0 °F 48.9 °F 47% 29.98 in 10.0 mi SSE 6.9 mph - N/A   Clear
3:53 PM 71.1 °F 46.9 °F 42% 29.97 in 10.0 mi South 8.1 mph - N/A   Clear
4:53 PM 71.1 °F 48.0 °F 44% 29.97 in 10.0 mi SSE 6.9 mph - N/A   Clear
5:53 PM 69.1 °F 48.9 °F 49% 29.97 in 10.0 mi South 4.6 mph - N/A   Clear
6:53 PM 59.0 °F 53.1 °F 81% 29.99 in 10.0 mi Calm Calm - N/A   Clear
7:53 PM 53.1 °F 51.1 °F 93% 30.00 in 10.0 mi Calm Calm - N/A   Clear
8:53 PM 48.9 °F 46.0 °F 90% 30.00 in 10.0 mi Calm Calm - N/A   Clear
9:40 PM 46.4 °F 44.6 °F 93% 29.99 in 8.0 mi Calm Calm - N/A   Partly Cloudy
9:53 PM 46.9 °F 45.0 °F 93% 30.01 in 8.0 mi Calm Calm - N/A   Clear
10:53 PM 45.0 °F 43.0 °F 93% 30.01 in 6.0 mi Calm Calm - N/A   Clear
11:53 PM 43.0 °F 42.1 °F 97% 30.00 in 6.0 mi Calm Calm - N/A   Clear